This demonstration page uses our WeatherBlox Daily Observations layout. Learn more.

Left ArrowRight Arrow

39.95238, -75.16362

Hourly Observations for May 26, 2018

Temp ( °F °C ) Dew Point ( °F °C ) Humidity (%) Winds ( mph kmh ) Pressure ( in mb ) Visibility ( mi km ) Precip ( " mm )
12:54 am 00:54 Mostly Clear 73 22.8 63 17.2 71 71 SW 8 13 29.88 1012 10 16 0.00 0.00
1:54 am 01:54 Mostly Clear 72 22.2 63 17.2 73 73 SSW 7 11 29.88 1012 10 16 0.00 0.00
2:54 am 02:54 Mostly Clear 71 21.7 64 17.8 79 79 SSW 5 7 29.86 1011 10 16 0.00 0.00
3:54 am 03:54 Mostly Clear 71 21.7 64 17.8 79 79 SW 7 11 29.85 1011 10 16 0.00 0.00
4:54 am 04:54 Clear 70 21.1 64 17.8 82 82 SSW 6 9 29.85 1011 10 16 0.00 0.00
5:54 am 05:54 Partly Cloudy 69 20.6 65 18.3 87 87 SSW 6 9 29.85 1011 10 16 0.00 0.00
6:54 am 06:54 Partly Cloudy 72 22.2 65 18.3 79 79 SW 7 11 29.85 1011 10 16 0.00 0.00
7:54 am 07:54 Mostly Cloudy 74 23.3 66 18.9 76 76 SW 8 13 29.85 1011 10 16 0.00 0.00
8:54 am 08:54 Cloudy 76 24.4 67 19.4 74 74 WSW 10 17 29.87 1012 10 16 0.00 0.00
9:54 am 09:54 Mostly Cloudy 76 24.4 67 19.4 74 74 SSW 7 11 29.86 1011 10 16 0.00 0.00
10:54 am 10:54 Mostly Cloudy 79 26.1 67 19.4 67 67 SW 9 15 29.85 1011 10 16 0.00 0.00
11:54 am 11:54 Partly Cloudy 82 27.8 68 20 63 63 WSW 6 9 29.84 1011 10 16 0.00 0.00
12:54 pm 12:54 Mostly Cloudy 85 29.4 69 20.6 59 59 WSW 10 17 29.83 1010 10 16 0.00 0.00
1:54 pm 13:54 Mostly Cloudy 87 30.6 69 20.6 55 55 SW 10 17 29.82 1010 10 16 0.00 0.00
2:54 pm 14:54 Mostly Cloudy 89 31.7 68 20 50 50 SSW 13 20 29.80 1009 10 16 0.00 0.00
3:20 pm 15:20 Mostly Cloudy with Thunderstorms 89 31.7 67 19.4 48 48 WSW 10 17 29.80 1009 10 16 0.00 0.00
3:44 pm 15:44 Mostly Cloudy with Light Rain 87 30.6 69 20.6 55 55 W 15 24 29.80 1009 5 8 0.00 0.03
3:54 pm 15:54 Mostly Cloudy with Heavy Rain 83 28.3 69 20.6 63 63 W 9 15 29.80 1009 5 8 0.03 0.76
4:04 pm 16:04 Mostly Cloudy with Light Rain 83 28.3 71 21.7 67 67 W 3 6 29.80 1009 10 16 0.02 0.51
4:54 pm 16:54 Mostly Cloudy 86 30 69 20.6 57 57 SW 7 11 29.79 1009 10 16 0.02 0.51
4:58 pm 16:58 Mostly Cloudy with Nearby Thunderstorms 86 30 69 20.6 57 57 WSW 6 9 29.80 1009 10 16 0.00 0.00
5:03 pm 17:03 Mostly Cloudy with Thunderstorms 86 30 69 20.6 57 57 W 6 9 29.80 1009 10 16 0.00 0.00
5:42 pm 17:42 Mostly Cloudy with Rain 85 29.4 70 21.1 61 61 NW 15 24 29.80 1009 3 5 0.00 0.03
5:47 pm 17:47 Mostly Cloudy with Strong Thunderstorms 81 27.2 71 21.7 72 72 WNW 15 24 29.83 1010 2 3 0.02 0.51
5:50 pm 17:50 Cloudy with Strong Thunderstorms 79 26 70 21 74 74 WNW 20 31 29.83 1010 1 2 0.13 3.30
5:54 pm 17:54 Cloudy with Strong Thunderstorms 78 25.6 68 20 71 71 WSW 10 17 29.81 1010 1 2 0.28 7.11
6:10 pm 18:10 Cloudy with Strong Thunderstorms 74 23.3 67 19.4 79 79 SE 14 22 29.80 1009 2 3 0.52 13.21
6:18 pm 18:18 Cloudy with Thunderstorms 73 22.8 66 18.9 79 79 SE 18 30 29.80 1009 10 16 0.52 13.21
6:54 pm 18:54 Cloudy with Thunderstorms 78 25.6 67 19.4 69 69 SE 8 13 29.81 1010 10 16 0.52 13.21
7:30 pm 19:30 Cloudy 77 25 68 20 74 74 S 6 9 29.83 1010 10 16 0.00 0.03
7:54 pm 19:54 Cloudy 82 27.8 68 20 63 63 SW 8 13 29.82 1010 10 16 0.00 0.03
8:00 pm 20:00 Mostly Cloudy with Thunderstorms 81 27.2 69 20.6 67 67 SW 7 11 29.83 1010 10 16 0.00 0.00
8:23 pm 20:23 Mostly Cloudy 78 25.6 69 20.6 74 74 VRB 5 7 29.83 1010 10 16 0.00 0.00
8:54 pm 20:54 Cloudy 75 23.9 69 20.6 82 82 ESE 3 6 29.84 1011 10 16 0.00 0.00
9:54 pm 21:54 Cloudy 73 22.8 70 21.1 90 90 Calm 29.86 1011 10 16 0.00 0.00
10:54 pm 22:54 Cloudy 74 23.3 71 21.7 91 91 S 7 11 29.86 1011 10 16 0.00 0.00
11:54 pm 23:54 Cloudy with Light Rain 76 24.4 70 21.1 82 82 S 7 11 29.87 1012 10 16 0.00 0.03

Powered by AerisWeather